Tracking 18852 objects as of 23-Nov-2017
HD Live streaming from Space Station
objects crossing your sky now

FENGYUN 1C DEB

Track FENGYUN 1C DEB now!
10-day predictions


NORAD ID: 29870
Int'l Code: 1999-025FQ
Perigee: 718.7 km
Apogee: 892.1 km
Inclination: 98.5 °
Period: 100.8 minutes
Semi major axis: 7176 km
RCS: 0.068 m2 (small)
Launch date: May 10, 1999
Source: People's Republic of China (PRC)
Launch site: Taiyaun Space Center, China (TSC)

Note: This is SATELLITE DEBRIS
aabbcc
Your satellite tracking list
Your tracking list is empty




NASA's NSSDC Master Catalog

Two Line Element Set (TLE):
1 29870U 99025FQ  17326.77565263 -.00000010  00000-0  12581-4 0  9994
2 29870  98.4820   9.1010 0120859 225.7291 197.9709 14.28044791566024
Source of the keplerian elements: AFSPC